NOAA NWS Hourly Roundups by Site

Regional Weather Roundup for Bismarck, ND

To Select Another Site Choose from List

Select Site:  

000
ASUS43 KBIS 240810
RWRBIS

NWR BROADCAST TEXT
NATIONAL WEATHER SERVICE BISMARCK ND
200 AM CST TUE NOV 24 2020

NOTE: "FAIR" INDICATES FEW OR NO CLOUDS BELOW 12,000 FEET WITH NO
SIGNIFICANT WEATHER AND/OR OBSTRUCTIONS TO VISIBILITY.


CITY           SKY/WX    TMP DP  RH WIND       PRES   REMARKS
WILLISTON      CLOUDY    17  13  84 NW16      29.82R WCI   2
MINOT          MOCLDY    29  24  82 W18G24    29.73R WCI  16
MINOT AFB      MOCLDY    23  23 100 NW17G24   29.73R WCI   9
BISMARCK       PTCLDY    28  21  75 W5        29.77R
DICKINSON      PTCLDY    25  20  81 NW16      29.75R WCI  12
GARRISON         N/A     25  21  85 W7        29.73R WCI  17
HETTINGER ARPT CLEAR     19  15  84 NW7       29.79R WCI  10
JAMESTOWN      CLOUDY    37  33  85 S15       29.77F FOG
CARRINGTON     CLOUDY    34  34 100 S15       29.77S FOG
HAZEN          FAIR      19  18  93 SW9       29.78R WCI   9
MANDAN         FAIR      23  21  93 W12       29.76S WCI  12
OAKES          MIX PCPN  36  36 100 S15       29.81F VSB 1
RUGBY            N/A     32  32 100 SE10      29.73S
STANLEY        CLOUDY    19  19 100 NW13G21   29.76S WCI   7
TIOGA          CLOUDY    18  18 100 NW18      29.80R FOG     WCI   2
WATFORD CITY   CLOUDY    19  16  86 NW15      29.83R WCI   5
$$

CITY           SKY/WX    TMP DP  RH WIND       PRES   REMARKS
GRAND FORKS    FRZ RAIN  31  28  89 SE17      29.87F FOG     WCI  19
GRAND FORKS AF FRZ DRZL  32  32 100 SE7       29.84F
DEVILS LAKE    CLOUDY    32  31  96 SE15      29.77F
FARGO          LGT RAIN  34  31  88 SE18G31   29.88F FOG
CANDO          CLOUDY    32  32 100 SE10      29.78F FOG
CAVALIER       CLOUDY    30  28  93 SE10G18   29.85F FOG
GRAFTON        CLOUDY    30  30 100 SE20G28   29.87F FOG     WCI  18
GWINNER        CLOUDY    34  34 100 SE10      29.83F
LANGDON        CLOUDY    32  32 100 S16       29.79F FOG
ROLLA          FOG       30  30 100 S7        29.76F VSB 1
WALHALLA       CLOUDY    30  30 100 SE13G20   29.83F FOG
$$

CITY           SKY/WX    TMP DP  RH WIND       PRES   REMARKS
ABERDEEN       CLOUDY    38  34  85 S16G28    29.82S FOG
MOBRIDGE       PTCLDY    29  23  78 NW9       29.75R
BUFFALO          N/A     25  14  63 W14       29.79R WCI  13
RAPID CITY     MOCLDY    30  10  43 NW5       29.82S
GLASGOW        CLEAR     17  15  92 NW15      29.89R WCI   2
SIDNEY         CLOUDY    18  14  84 NW8       29.87R WCI   8
WOLF POINT     CLEAR     17  12  80 W8        29.90R WCI   7
GLENDIVE       PTCLDY    20  16  84 NW9       29.86R WCI   9
MILES CITY     CLEAR     24  17  74 W6        29.90R WCI  17
BAKER          PTCLDY    24  17  74 W14       29.84R WCI  12
$$

CITY           SKY/WX    TMP DP  RH WIND       PRES   REMARKS
BILLINGS       PTCLDY    32  19  58 W14       29.92R
GREAT FALLS    CLEAR     26  19  74 SW13      29.89S WCI  15
REGINA         CLOUDY    16  12  86 NW18G25   29.85R WCI  -1
ESTEVAN        CLOUDY    19  18  93 NW22G28   29.80R FOG     WCI   3
$$



 

View Past Reports for Bismarck, ND.

Products Courtesy of NOAA-NWS
NWS Information Parsing Script by Ken True at Saratoga Weather - Script by SE Lincoln Weather.